WWW416 KIAH-KDCA

Flight info

Callsign WWW416
Flight time 2h 23m
Altitude 39000
Route LURIC8 HAWES SUTTN J29 CARIN MEMFS Q34 SITTR TRUPS5
Aircraft B736/M-SDE2E3FGHIRWXY/LB1

Departure

Time 2026-05-04 10:30
Airport George Bush Intercontinental Airport (KIAH)

Arrival

Time 2026-05-04 12:53
Airport Ronald Reagan Washington National Airport (KDCA)
Time Latitude Longitude Altitude Speed Heading
2026-05-04 09:57 29.96744 -95.35156 106 ft 0 kts 107°
2026-05-04 10:19 29.96747 -95.35169 106 ft 4 kts 76°
2026-05-04 10:19 29.96746 -95.35174 106 ft 4 kts 341°
2026-05-04 10:19 29.96725 -95.35164 106 ft 1 kts 332°
2026-05-04 10:20 29.96721 -95.35162 106 ft 0 kts 332°
2026-05-04 10:23 29.96722 -95.35162 106 ft 1 kts 332°
2026-05-04 10:25 29.97020 -95.35210 103 ft 12 kts 332°
2026-05-04 10:25 29.97101 -95.35260 105 ft 14 kts 332°
2026-05-04 10:25 29.97196 -95.35318 105 ft 17 kts 332°
2026-05-04 10:25 29.97302 -95.35382 105 ft 18 kts 332°
2026-05-04 10:26 29.97415 -95.35452 105 ft 18 kts 332°
2026-05-04 10:26 29.97524 -95.35518 106 ft 17 kts 332°
2026-05-04 10:26 29.97627 -95.35582 106 ft 17 kts 332°
2026-05-04 10:26 29.97727 -95.35644 106 ft 16 kts 332°
2026-05-04 10:27 29.97824 -95.35703 105 ft 15 kts 332°
2026-05-04 10:27 29.97919 -95.35761 105 ft 15 kts 332°
2026-05-04 10:27 29.98007 -95.35815 105 ft 14 kts 332°
2026-05-04 10:27 29.98097 -95.35870 105 ft 15 kts 332°
2026-05-04 10:28 29.98198 -95.35930 105 ft 17 kts 333°
2026-05-04 10:28 29.98291 -95.36005 106 ft 16 kts 309°
2026-05-04 10:28 29.98366 -95.36094 106 ft 15 kts 329°
2026-05-04 10:28 29.98461 -95.36149 106 ft 15 kts 333°
2026-05-04 10:29 29.98541 -95.36197 106 ft 9 kts 348°
2026-05-04 10:29 29.98590 -95.36165 107 ft 9 kts 58°
2026-05-04 10:29 29.98618 -95.36106 106 ft 8 kts 62°
2026-05-04 10:29 29.98621 -95.36045 108 ft 8 kts 129°
2026-05-04 10:30 29.98535 -95.35990 108 ft 34 kts 152°
2026-05-04 10:30 29.98095 -95.35722 104 ft 106 kts 152°
2026-05-04 10:30 29.97264 -95.35228 178 ft 154 kts 154°
2026-05-04 10:30 29.96321 -95.34639 806 ft 155 kts 150°
2026-05-04 10:31 29.95627 -95.33691 1423 ft 166 kts 108°
2026-05-04 10:31 29.95729 -95.32218 1709 ft 209 kts 69°
2026-05-04 10:32 30.05556 -95.27443 5969 ft 277 kts 20°
2026-05-04 10:33 30.07364 -95.26633 6852 ft 281 kts 19°
2026-05-04 10:33 30.09171 -95.25732 7685 ft 286 kts 27°
2026-05-04 10:33 30.10866 -95.24473 8518 ft 293 kts 32°
2026-05-04 10:33 30.12534 -95.23090 9342 ft 298 kts 32°
2026-05-04 10:34 30.14229 -95.21673 10149 ft 303 kts 31°
2026-05-04 10:34 30.15381 -95.20722 10479 ft 315 kts 31°
2026-05-04 10:34 30.17246 -95.19202 10668 ft 341 kts 31°
2026-05-04 10:34 30.19255 -95.17580 10937 ft 361 kts 31°
2026-05-04 10:35 30.21343 -95.15901 11547 ft 369 kts 30°
2026-05-04 10:35 30.24151 -95.13648 12595 ft 372 kts 30°
2026-05-04 10:35 30.26283 -95.11939 13384 ft 374 kts 30°
2026-05-04 10:35 30.27734 -95.10777 13900 ft 377 kts 30°
2026-05-04 10:36 30.29901 -95.09041 14565 ft 381 kts 30°
2026-05-04 10:36 30.32071 -95.07301 15233 ft 385 kts 30°
2026-05-04 10:36 30.34288 -95.05522 15893 ft 390 kts 30°
2026-05-04 10:36 30.36530 -95.03721 16554 ft 395 kts 30°
2026-05-04 10:37 30.38801 -95.01897 17207 ft 400 kts 29°
2026-05-04 10:37 30.41109 -95.00050 17852 ft 404 kts 28°
2026-05-04 10:37 30.43459 -94.98236 18472 ft 408 kts 28°
2026-05-04 10:37 30.45844 -94.96426 19023 ft 412 kts 27°
2026-05-04 10:39 30.60594 -94.85150 22403 ft 433 kts 27°
2026-05-04 10:39 30.63124 -94.83207 22908 ft 437 kts 27°
2026-05-04 10:39 30.65670 -94.81250 23421 ft 441 kts 27°
2026-05-04 10:40 30.68236 -94.79276 23873 ft 444 kts 27°
2026-05-04 10:40 30.70826 -94.77282 24297 ft 447 kts 27°
2026-05-04 10:40 30.73394 -94.75303 24724 ft 450 kts 27°
2026-05-04 10:40 30.76020 -94.73278 25156 ft 453 kts 27°
2026-05-04 10:41 30.78654 -94.71246 25590 ft 456 kts 27°
2026-05-04 10:41 30.81309 -94.69196 26015 ft 459 kts 27°
2026-05-04 10:41 30.83983 -94.67130 26417 ft 462 kts 26°
2026-05-04 10:41 30.86665 -94.65055 26813 ft 465 kts 26°
2026-05-04 10:42 30.89372 -94.62961 27222 ft 469 kts 26°
2026-05-04 10:42 30.92098 -94.60850 27589 ft 472 kts 26°
2026-05-04 10:42 30.94852 -94.58716 27974 ft 475 kts 26°
2026-05-04 10:42 30.97607 -94.56579 28368 ft 477 kts 26°
2026-05-04 10:43 31.00351 -94.54450 28715 ft 480 kts 26°
2026-05-04 10:44 31.20152 -94.39066 31319 ft 489 kts 25°
2026-05-04 10:45 31.22972 -94.36864 31855 ft 485 kts 25°
2026-05-04 10:45 31.25773 -94.34678 32300 ft 483 kts 25°
2026-05-04 10:45 31.28566 -94.32498 32705 ft 483 kts 25°
2026-05-04 10:45 31.31351 -94.30323 33099 ft 482 kts 25°
2026-05-04 10:46 31.34137 -94.28145 33538 ft 480 kts 24°
2026-05-04 10:46 31.36912 -94.25973 33978 ft 478 kts 24°
2026-05-04 10:46 31.39667 -94.23815 34325 ft 477 kts 24°
2026-05-04 10:46 31.42392 -94.21680 34632 ft 476 kts 24°
2026-05-04 10:47 31.45145 -94.19521 34932 ft 475 kts 24°
2026-05-04 10:47 31.47887 -94.17370 35276 ft 475 kts 24°
2026-05-04 10:47 31.50636 -94.15213 35498 ft 476 kts 24°
2026-05-04 10:47 31.53382 -94.13057 35787 ft 475 kts 24°
2026-05-04 10:49 31.72411 -93.98056 37731 ft 468 kts 23°
2026-05-04 10:49 31.75109 -93.95923 38017 ft 467 kts 23°
2026-05-04 10:50 31.77808 -93.93787 38287 ft 466 kts 23°
2026-05-04 10:51 31.95846 -93.77363 39087 ft 471 kts 27°
2026-05-04 10:52 31.98432 -93.74987 39089 ft 471 kts 27°
2026-05-04 10:52 32.03614 -93.70234 39109 ft 473 kts 27°
2026-05-04 10:54 32.24411 -93.51090 39074 ft 473 kts 27°
2026-05-04 10:56 32.45053 -93.31972 39072 ft 470 kts 27°
2026-05-04 10:57 32.50195 -93.27192 39072 ft 470 kts 27°
2026-05-04 10:57 32.55337 -93.22405 39075 ft 469 kts 27°
2026-05-04 10:58 32.60472 -93.17618 39086 ft 469 kts 27°
2026-05-04 10:58 32.65607 -93.12823 39072 ft 469 kts 27°
2026-05-04 10:59 32.70697 -93.08063 39075 ft 469 kts 27°
2026-05-04 10:59 32.75811 -93.03273 39070 ft 469 kts 27°
2026-05-04 11:00 32.80939 -92.98463 39062 ft 468 kts 27°
2026-05-04 11:02 33.01484 -92.79383 39055 ft 466 kts 24°
2026-05-04 11:05 33.40807 -92.45127 39040 ft 466 kts 24°
2026-05-04 11:06 33.46035 -92.40526 39041 ft 466 kts 24°
2026-05-04 11:06 33.51154 -92.35672 39031 ft 480 kts 34°
2026-05-04 11:08 33.65909 -92.13068 39040 ft 493 kts 41°
2026-05-04 11:10 33.80669 -91.90359 39064 ft 491 kts 40°
2026-05-04 11:12 33.97406 -91.64379 39045 ft 492 kts 40°
2026-05-04 11:12 34.01591 -91.57841 39044 ft 492 kts 40°
2026-05-04 11:13 34.05776 -91.51295 39058 ft 493 kts 41°
2026-05-04 11:13 34.09958 -91.44741 39047 ft 493 kts 41°
2026-05-04 11:14 34.14139 -91.38176 39043 ft 494 kts 41°
2026-05-04 11:16 34.30900 -91.11737 39053 ft 496 kts 42°
2026-05-04 11:16 34.35066 -91.05134 39037 ft 496 kts 42°
2026-05-04 11:17 34.39261 -90.98472 39033 ft 496 kts 42°
2026-05-04 11:19 34.55963 -90.71872 39025 ft 495 kts 43°
2026-05-04 11:19 34.60099 -90.65248 39022 ft 495 kts 43°
2026-05-04 11:20 34.64250 -90.58588 39014 ft 494 kts 43°
2026-05-04 11:20 34.68395 -90.51929 39020 ft 494 kts 43°
2026-05-04 11:22 34.84260 -90.26333 39012 ft 494 kts 44°
2026-05-04 11:23 34.88389 -90.19639 39012 ft 493 kts 44°
2026-05-04 11:25 35.02480 -89.95970 38992 ft 505 kts 58°
2026-05-04 11:25 35.05316 -89.88095 38999 ft 507 kts 61°
2026-05-04 11:27 35.17786 -89.52670 39000 ft 502 kts 60°
2026-05-04 11:28 35.20543 -89.44883 39000 ft 502 kts 60°
2026-05-04 11:28 35.23309 -89.37047 38999 ft 502 kts 60°
2026-05-04 11:29 35.26071 -89.29205 39015 ft 502 kts 61°
2026-05-04 11:29 35.28832 -89.21340 39015 ft 502 kts 61°
2026-05-04 11:33 35.47913 -88.66516 39009 ft 499 kts 61°
2026-05-04 11:33 35.50616 -88.58672 39027 ft 499 kts 62°
2026-05-04 11:34 35.53311 -88.50830 39022 ft 498 kts 62°
2026-05-04 11:34 35.56002 -88.42984 39031 ft 498 kts 62°
2026-05-04 11:35 35.58685 -88.35143 39024 ft 498 kts 62°
2026-05-04 11:35 35.61366 -88.27290 39028 ft 498 kts 62°
2026-05-04 11:36 35.64034 -88.19455 39026 ft 497 kts 62°
2026-05-04 11:36 35.66682 -88.11656 39020 ft 497 kts 62°
2026-05-04 11:37 35.69342 -88.03804 39029 ft 497 kts 62°
2026-05-04 11:37 35.71997 -87.95945 39025 ft 497 kts 62°
2026-05-04 11:38 35.74647 -87.88077 39034 ft 497 kts 62°
2026-05-04 11:38 35.77293 -87.80204 39025 ft 498 kts 62°
2026-05-04 11:39 35.79931 -87.72313 39027 ft 497 kts 62°
2026-05-04 11:41 35.89018 -87.44714 39026 ft 497 kts 62°
2026-05-04 11:41 35.91611 -87.36800 39025 ft 497 kts 62°
2026-05-04 11:42 35.94194 -87.28898 39031 ft 497 kts 63°
2026-05-04 11:42 35.96776 -87.20974 39021 ft 497 kts 63°
2026-05-04 11:43 35.99353 -87.13044 39021 ft 497 kts 63°
2026-05-04 11:43 36.01925 -87.05110 39017 ft 497 kts 63°
2026-05-04 11:44 36.04490 -86.97176 39012 ft 497 kts 63°
2026-05-04 11:44 36.07032 -86.89288 39014 ft 497 kts 63°
2026-05-04 11:45 36.09590 -86.81334 39010 ft 498 kts 63°
2026-05-04 11:45 36.12141 -86.73378 39039 ft 498 kts 63°
2026-05-04 11:46 36.14693 -86.65417 39039 ft 498 kts 63°
2026-05-04 11:46 36.17278 -86.57457 39039 ft 498 kts 63°
2026-05-04 11:47 36.19866 -86.49499 39057 ft 498 kts 63°
2026-05-04 11:47 36.22451 -86.41512 39068 ft 499 kts 63°
2026-05-04 11:48 36.25021 -86.33535 39061 ft 499 kts 63°
2026-05-04 11:48 36.27585 -86.25552 39060 ft 498 kts 63°
2026-05-04 11:49 36.30123 -86.17631 39035 ft 498 kts 63°
2026-05-04 11:49 36.32672 -86.09654 39034 ft 497 kts 63°
2026-05-04 11:50 36.35217 -86.01668 39029 ft 497 kts 63°
2026-05-04 11:50 36.37752 -85.93693 39034 ft 497 kts 63°
2026-05-04 11:51 36.40280 -85.85718 39018 ft 496 kts 63°
2026-05-04 11:51 36.42800 -85.77745 39060 ft 496 kts 63°
2026-05-04 11:52 36.45319 -85.69754 39027 ft 496 kts 63°
2026-05-04 11:52 36.47829 -85.61769 39018 ft 496 kts 63°
2026-05-04 11:53 36.50336 -85.53770 39019 ft 496 kts 63°
2026-05-04 11:53 36.52835 -85.45776 39023 ft 496 kts 63°
2026-05-04 11:55 36.62778 -85.13745 39031 ft 497 kts 64°
2026-05-04 11:56 36.65258 -85.05697 39062 ft 498 kts 64°
2026-05-04 11:56 36.67736 -84.97632 39050 ft 498 kts 64°
2026-05-04 11:57 36.70208 -84.89558 39046 ft 498 kts 64°
2026-05-04 11:57 36.72668 -84.81505 39055 ft 497 kts 64°
2026-05-04 11:58 36.75121 -84.73451 39043 ft 496 kts 64°
2026-05-04 11:58 36.77563 -84.65411 39049 ft 495 kts 64°
2026-05-04 11:59 36.79995 -84.57382 39048 ft 494 kts 64°
2026-05-04 11:59 36.82422 -84.49360 39028 ft 494 kts 64°
2026-05-04 12:00 36.84843 -84.41346 39030 ft 493 kts 64°
2026-05-04 12:00 36.87243 -84.33377 39075 ft 493 kts 64°
2026-05-04 12:01 36.89651 -84.25355 39080 ft 493 kts 64°
2026-05-04 12:02 36.98043 -83.97198 39077 ft 493 kts 64°
2026-05-04 12:03 37.00418 -83.89145 39070 ft 493 kts 64°
2026-05-04 12:03 37.02772 -83.81140 39055 ft 494 kts 64°
2026-05-04 12:04 37.05142 -83.73061 39061 ft 495 kts 64°
2026-05-04 12:04 37.07512 -83.64958 39047 ft 496 kts 64°
2026-05-04 12:05 37.09883 -83.56828 39030 ft 497 kts 64°
2026-05-04 12:05 37.12252 -83.48682 39024 ft 498 kts 65°
2026-05-04 12:06 37.14619 -83.40513 39026 ft 499 kts 65°
2026-05-04 12:06 37.16985 -83.32324 39017 ft 500 kts 65°
2026-05-04 12:07 37.19345 -83.24132 39019 ft 500 kts 65°
2026-05-04 12:07 37.21689 -83.15974 39027 ft 500 kts 65°
2026-05-04 12:08 37.24042 -83.07759 39019 ft 500 kts 65°
2026-05-04 12:08 37.26013 -83.00858 39025 ft 501 kts 65°
2026-05-04 12:09 37.28346 -82.92678 39059 ft 501 kts 65°
2026-05-04 12:09 37.30692 -82.84426 39029 ft 502 kts 65°
2026-05-04 12:10 37.33032 -82.76168 39044 ft 500 kts 66°
2026-05-04 12:10 37.35359 -82.67930 39051 ft 499 kts 66°
2026-05-04 12:11 37.37677 -82.59702 39064 ft 499 kts 66°
2026-05-04 12:11 37.39987 -82.51473 39064 ft 499 kts 66°
2026-05-04 12:12 37.42290 -82.43245 39013 ft 498 kts 66°
2026-05-04 12:12 37.44582 -82.35031 39029 ft 497 kts 66°
2026-05-04 12:14 37.53644 -82.02347 39015 ft 493 kts 67°
2026-05-04 12:15 37.55898 -81.94178 39008 ft 493 kts 67°
2026-05-04 12:15 37.58143 -81.86017 39014 ft 493 kts 67°
2026-05-04 12:16 37.60388 -81.77826 39008 ft 493 kts 67°
2026-05-04 12:16 37.62603 -81.69677 39006 ft 494 kts 67°
2026-05-04 12:17 37.64823 -81.61477 39024 ft 494 kts 67°
2026-05-04 12:17 37.67045 -81.53250 39024 ft 496 kts 68°
2026-05-04 12:18 37.69263 -81.45013 39037 ft 496 kts 68°
2026-05-04 12:18 37.71478 -81.36757 39040 ft 496 kts 68°
2026-05-04 12:19 37.73686 -81.28503 39057 ft 495 kts 68°
2026-05-04 12:19 37.75885 -81.20258 39062 ft 495 kts 68°
2026-05-04 12:20 37.78083 -81.12012 39071 ft 495 kts 67°
2026-05-04 12:20 37.80766 -81.04044 39071 ft 491 kts 60°
2026-05-04 12:21 37.83697 -80.96223 39064 ft 492 kts 61°
2026-05-04 12:21 37.86526 -80.88340 39056 ft 492 kts 62°
2026-05-04 12:22 37.89303 -80.80466 39040 ft 492 kts 62°
2026-05-04 12:22 37.92119 -80.72554 39038 ft 492 kts 62°
2026-05-04 12:23 37.94934 -80.64643 39029 ft 492 kts 62°
2026-05-04 12:23 37.97736 -80.56737 39044 ft 492 kts 62°
2026-05-04 12:24 38.00513 -80.48870 39034 ft 492 kts 62°
2026-05-04 12:24 38.03306 -80.40939 39047 ft 492 kts 62°
2026-05-04 12:25 38.06093 -80.33004 39049 ft 492 kts 62°
2026-05-04 12:25 38.08879 -80.25053 39047 ft 493 kts 62°
2026-05-04 12:26 38.11692 -80.17114 39050 ft 493 kts 62°
2026-05-04 12:26 38.14525 -80.09163 39059 ft 494 kts 62°
2026-05-04 12:27 38.17345 -80.01210 39068 ft 494 kts 62°
2026-05-04 12:27 38.20144 -79.93280 39059 ft 495 kts 63°
2026-05-04 12:28 38.22957 -79.85285 39078 ft 496 kts 63°
2026-05-04 12:28 38.25770 -79.77275 39064 ft 496 kts 63°
2026-05-04 12:29 38.28572 -79.69248 39073 ft 496 kts 63°
2026-05-04 12:29 38.29959 -79.65224 38850 ft 500 kts 63°
2026-05-04 12:29 38.31365 -79.61134 38141 ft 504 kts 63°
2026-05-04 12:30 38.32758 -79.57066 37450 ft 500 kts 63°
2026-05-04 12:30 38.34147 -79.53005 36737 ft 498 kts 62°
2026-05-04 12:30 38.35532 -79.48956 36027 ft 497 kts 62°
2026-05-04 12:30 38.36911 -79.44924 35261 ft 496 kts 62°
2026-05-04 12:31 38.38292 -79.40886 34473 ft 497 kts 61°
2026-05-04 12:31 38.39678 -79.36830 33524 ft 500 kts 61°
2026-05-04 12:31 38.41048 -79.32812 32620 ft 501 kts 61°
2026-05-04 12:31 38.42396 -79.28648 31668 ft 504 kts 65°
2026-05-04 12:32 38.43353 -79.24316 30701 ft 510 kts 73°
2026-05-04 12:32 38.44767 -79.15501 29107 ft 500 kts 75°
2026-05-04 12:32 38.45467 -79.11194 28428 ft 492 kts 73°
2026-05-04 12:33 38.46191 -79.06986 28041 ft 478 kts 73°
2026-05-04 12:33 38.46906 -79.02920 27882 ft 461 kts 73°
2026-05-04 12:33 38.47608 -78.98934 27337 ft 457 kts 73°
2026-05-04 12:33 38.48288 -78.95050 26832 ft 452 kts 73°
2026-05-04 12:34 38.48968 -78.91150 26325 ft 448 kts 73°
2026-05-04 12:34 38.49640 -78.87278 25832 ft 445 kts 73°
2026-05-04 12:34 38.50297 -78.83434 25345 ft 442 kts 74°
2026-05-04 12:34 38.50909 -78.79600 24851 ft 440 kts 75°
2026-05-04 12:35 38.51499 -78.75788 24373 ft 437 kts 75°
2026-05-04 12:35 38.52087 -78.71987 23894 ft 435 kts 75°
2026-05-04 12:35 38.52678 -78.68207 23385 ft 433 kts 75°
2026-05-04 12:35 38.53269 -78.64448 22831 ft 430 kts 75°
2026-05-04 12:36 38.53859 -78.60735 22424 ft 424 kts 75°
2026-05-04 12:36 38.54445 -78.57068 21984 ft 420 kts 75°
2026-05-04 12:36 38.55026 -78.53428 21557 ft 417 kts 75°
2026-05-04 12:36 38.55596 -78.49855 21164 ft 414 kts 75°
2026-05-04 12:37 38.56173 -78.46225 20730 ft 411 kts 75°
2026-05-04 12:37 38.56739 -78.42652 20329 ft 409 kts 75°
2026-05-04 12:37 38.57294 -78.39143 19924 ft 407 kts 75°
2026-05-04 12:37 38.57892 -78.35619 19508 ft 405 kts 74°
2026-05-04 12:38 38.58512 -78.32118 19099 ft 403 kts 74°
2026-05-04 12:38 38.59126 -78.28629 18706 ft 401 kts 74°
2026-05-04 12:38 38.59741 -78.25164 18307 ft 399 kts 73°
2026-05-04 12:38 38.60611 -78.21814 17842 ft 394 kts 64°
2026-05-04 12:39 38.61690 -78.18604 17430 ft 391 kts 62°
2026-05-04 12:39 38.62773 -78.15421 17008 ft 389 kts 63°
2026-05-04 12:39 38.63826 -78.12238 16590 ft 385 kts 63°
2026-05-04 12:39 38.64845 -78.09096 16210 ft 380 kts 64°
2026-05-04 12:40 38.65841 -78.05994 15838 ft 375 kts 64°
2026-05-04 12:40 38.66828 -78.02919 15460 ft 372 kts 64°
2026-05-04 12:40 38.67795 -77.99904 15065 ft 369 kts 64°
2026-05-04 12:40 38.68779 -77.96836 14699 ft 367 kts 64°
2026-05-04 12:41 38.69734 -77.93858 14348 ft 365 kts 64°
2026-05-04 12:41 38.70706 -77.90824 13988 ft 363 kts 64°
2026-05-04 12:41 38.71649 -77.87873 13595 ft 359 kts 64°
2026-05-04 12:41 38.72590 -77.84930 13225 ft 355 kts 64°
2026-05-04 12:42 38.73652 -77.82124 12824 ft 345 kts 50°
2026-05-04 12:42 38.75200 -77.79843 12532 ft 335 kts 43°
2026-05-04 12:42 38.76778 -77.77659 12154 ft 332 kts 43°
2026-05-04 12:42 38.78323 -77.75488 11810 ft 328 kts 44°
2026-05-04 12:43 38.79840 -77.73319 11477 ft 325 kts 44°
2026-05-04 12:43 38.81327 -77.71176 11142 ft 317 kts 44°
2026-05-04 12:43 38.82774 -77.69070 10811 ft 314 kts 45°
2026-05-04 12:43 38.84194 -77.66945 10472 ft 313 kts 46°
2026-05-04 12:44 38.85600 -77.64823 10133 ft 311 kts 46°
2026-05-04 12:44 38.86967 -77.62757 9780 ft 310 kts 46°
2026-05-04 12:44 38.88358 -77.60657 9416 ft 308 kts 46°
2026-05-04 12:44 38.89739 -77.58575 9074 ft 306 kts 46°
2026-05-04 12:45 38.91119 -77.56496 8727 ft 305 kts 46°
2026-05-04 12:45 38.92490 -77.54428 8405 ft 303 kts 46°
2026-05-04 12:45 38.93850 -77.52375 8068 ft 301 kts 47°
2026-05-04 12:45 38.94953 -77.50114 7723 ft 304 kts 64°
2026-05-04 12:46 38.95758 -77.47620 7407 ft 302 kts 66°
2026-05-04 12:46 38.96548 -77.45121 7072 ft 301 kts 66°
2026-05-04 12:46 38.97347 -77.42638 6742 ft 300 kts 66°
2026-05-04 12:46 38.98158 -77.40169 6410 ft 300 kts 65°
2026-05-04 12:47 38.98976 -77.37703 6046 ft 298 kts 65°
2026-05-04 12:47 38.99774 -77.35304 5706 ft 289 kts 65°
2026-05-04 12:47 39.00555 -77.32960 5377 ft 280 kts 65°
2026-05-04 12:47 39.01319 -77.30682 5055 ft 273 kts 65°
2026-05-04 12:48 39.02071 -77.28445 4751 ft 272 kts 65°
2026-05-04 12:48 39.02751 -77.26181 4430 ft 272 kts 77°
2026-05-04 12:48 39.02669 -77.23784 4131 ft 270 kts 110°
2026-05-04 12:48 39.01760 -77.21766 3850 ft 258 kts 135°
2026-05-04 12:49 39.00536 -77.20241 3575 ft 250 kts 140°
2026-05-04 12:49 38.99292 -77.18756 3294 ft 245 kts 140°
2026-05-04 12:49 38.98061 -77.17281 3023 ft 237 kts 140°
2026-05-04 12:49 38.96907 -77.15835 2773 ft 226 kts 139°
2026-05-04 12:50 38.95787 -77.14487 2498 ft 216 kts 143°
2026-05-04 12:50 38.94672 -77.13249 2267 ft 210 kts 143°
2026-05-04 12:50 38.93583 -77.12052 2029 ft 201 kts 145°
2026-05-04 12:50 38.92430 -77.11135 1760 ft 190 kts 159°
2026-05-04 12:51 38.91269 -77.10407 1512 ft 182 kts 152°
2026-05-04 12:51 38.90474 -77.09240 1303 ft 171 kts 115°
2026-05-04 12:51 38.90408 -77.07796 1115 ft 153 kts 92°
2026-05-04 12:51 38.90041 -77.06682 934 ft 125 kts 148°
2026-05-04 12:52 38.89323 -77.05979 796 ft 138 kts 141°
2026-05-04 12:52 38.88631 -77.05192 581 ft 129 kts 141°
2026-05-04 12:52 38.88194 -77.04685 470 ft 125 kts 143°
2026-05-04 12:52 38.87453 -77.04147 330 ft 122 kts 165°
2026-05-04 12:53 38.86629 -77.03929 160 ft 122 kts 175°
2026-05-04 12:53 38.85786 -77.03836 34 ft 118 kts 178°
2026-05-04 12:53 38.85108 -77.03771 24 ft 69 kts 174°
2026-05-04 12:53 38.84791 -77.03741 24 ft 21 kts 183°
2026-05-04 12:54 38.84689 -77.03792 26 ft 15 kts 207°
2026-05-04 12:54 38.84596 -77.03851 23 ft 15 kts 206°
2026-05-04 12:54 38.84507 -77.03906 25 ft 14 kts 205°
2026-05-04 12:54 38.84422 -77.03959 29 ft 13 kts 207°
2026-05-04 12:55 38.84377 -77.04031 29 ft 9 kts 260°
2026-05-04 12:55 38.84392 -77.04108 27 ft 8 kts 319°
2026-05-04 12:55 38.84442 -77.04122 23 ft 8 kts 346°
2026-05-04 12:55 38.84493 -77.04138 27 ft 8 kts 349°
2026-05-04 12:56 38.84547 -77.04149 23 ft 8 kts 351°
2026-05-04 12:56 38.84574 -77.04199 23 ft 8 kts 257°
2026-05-04 12:56 38.84556 -77.04266 23 ft 8 kts 221°
2026-05-04 12:56 38.84516 -77.04253 26 ft 6 kts 127°
2026-05-04 12:57 38.84515 -77.04239 23 ft 1 kts 84°
2026-05-04 12:57 38.84517 -77.04226 23 ft 2 kts 80°
2026-05-04 12:57 38.84519 -77.04208 25 ft 2 kts 81°
2026-05-04 12:57 38.84521 -77.04197 26 ft 0 kts 81°
2026-05-04 12:58 38.84521 -77.04196 23 ft 0 kts 81°